CAPE
0 0 0 0 0 0 0 0 0 0 0 0 0 0 0 0 0 0 0 0 0 0 0 0 0 0 0 0 0 0 0 0 0 0 0 0 0 0 0 0 0 0 0 0
0 0 0 0 0 0 0 0 0 0 0 0 0 0 0 0 0 0 0 0 0 0 0 0 0 0 0 0 0 0 0 0 0 0 0 0 0 0 0 0 0 0 0 0
0 0 0 0 0 0 0 0 0 0 0 0 0 0 0 0 0 0 0 0 0 0 0 0 0 0 0 0 0 0 0 0 0 0 0 0 0 0 0 0 0 0 0 0
0 0 0 0 0 0 0 0 0 0 0 0 0 0 0 0 0 0 0 0 0 0 0 0 0 0 0 0 0 0 0 0 0 0 0 0 0 0 0 0 0 0 0 0
0 0 0 0 0 0 0 0 0 0 0 0 0 0 0 0 0 0 0 0 0 0 0 0 0 0 0 0 0 0 0 0 0 0 0 0 0 0 0 0 0 0 0 0
0 0 0 0 0 0 0 0 0 0 0 0 0 0 0 0 0 0 0 0 0 0 0 0 0 0 0 0 0 0 0 0 0 0 0 0 0 0 0 0 0 1 4 5
0 0 0 0 0 0 0 0 0 0 0 0 0 0 0 0 0 0 0 0 0 0 0 0 0 0 0 0 0 0 0 0 0 0 0 0 0 0 0 0 0 2 0 0
0 0 0 0 0 0 0 0 0 0 0 0 0 0 0 0 0 0 0 0 0 0 0 0 0 0 0 0 0 0 0 0 0 0 0 0 0 0 0 0 6 8 5 1
0 0 0 0 0 0 0 0 0 0 0 0 0 0 0 0 0 0 0 0 0 0 0 0 0 0 0 0 0 0 0 0 0 0 0 0 0 0 0 1 7 10 5 8
0 0 0 0 0 0 0 0 0 0 0 0 0 0 0 0 0 0 0 0 0 0 0 0 0 0 0 0 0 0 0 0 0 0 0 0 0 0 0 0 2 8 12 8
0 0 0 0 0 0 0 0 0 0 0 0 0 0 0 0 0 0 0 0 0 0 0 0 0 0 0 0 0 0 0 0 0 0 0 0 0 0 0 0 0 1 6 3
0 0 0 0 0 0 0 0 0 0 0 0 0 0 0 0 0 0 0 0 0 0 0 0 0 0 0 0 0 0 0 0 0 0 0 0 0 0 0 0 0 0 0 0
0 0 0 0 0 0 0 0 0 0 0 0 0 0 0 0 0 0 0 0 0 0 0 0 0 0 0 0 0 0 0 0 0 0 0 0 0 0 0 0 0 0 0 0
0 0 0 0 0 0 0 0 0 0 0 0 0 0 0 0 0 0 0 0 0 0 0 0 0 0 0 0 0 0 0 0 0 0 0 0 0 0 0 0 0 0 0 0
0 0 0 0 0 0 0 0 0 0 0 0 0 0 0 0 0 0 0 0 0 0 0 0 0 0 0 0 0 0 0 0 0 0 0 0 0 0 0 0 0 0 0 0
0 0 0 0 0 0 0 0 0 0 0 0 0 0 0 0 0 0 0 0 0 0 0 0 0 0 0 0 0 0 0 0 0 0 0 0 0 0 0 0 0 0 0 4
0 0 0 0 0 0 0 0 0 0 0 0 0 0 0 0 0 0 0 0 0 0 0 0 0 0 0 0 0 0 0 0 0 0 0 0 0 2 5 5 3 0 0 0
0 0 0 0 0 0 0 0 0 0 0 0 0 0 0 0 0 0 0 0 0 0 0 0 0 0 0 0 0 0 0 0 0 0 0 0 2 4 9 6 8 6 5 0
0 0 0 0 0 0 0 0 0 0 0 0 0 0 0 0 0 0 0 0 0 0 0 0 0 0 0 0 0 0 0 0 0 0 0 0 0 2 5 6 5 0 1 0
0 0 0 0 0 0 0 0 0 0 0 0 0 0 0 0 0 0 0 0 0 0 0 0 0 0 0 0 0 0 0 0 0 0 0 0 0 3 1 1 0 0 0 0
0 0 0 0 0 0 0 0 0 0 0 0 0 0 0 0 0 0 0 0 0 0 0 0 0 0 0 0 0 0 0 0 0 0 0 0 1 0 0 0 0 0 0 0
0 0 0 0 0 0 0 0 0 0 0 0 0 0 0 0 0 0 0 0 0 0 0 0 0 0 0 0 0 0 0 0 0 0 0 0 0 0 0 0 0 0 0 0
0 0 0 0 0 0 0 0 0 0 0 0 0 0 0 0 0 0 0 0 0 0 0 0 0 0 0 0 0 0 0 0 0 0 0 0 0 0 0 0 0 0 0 0
0 0 0 0 0 0 0 0 0 0 0 0 0 0 0 0 0 0 0 0 0 0 0 0 0 0 0 0 0 0 0 0 0 0 0 0 0 0 0 0 0 0 0 0
0 0 0 0 0 0 0 0 0 0 0 0 0 0 0 0 0 0 0 0 0 0 0 0 0 0 0 0 0 0 0 0 0 0 0 0 0 0 0 0 0 0 0 0
0 0 0 0 0 0 0 0 0 0 0 0 0 0 0 0 0 0 0 0 0 0 0 0 0 0 0 0 0 0 0 0 0 0 0 0 0 0 0 0 0 0 0 0
0 0 0 0 0 0 0 0 0 0 0 0 0 0 0 0 0 0 0 0 0 0 0 0 0 0 0 0 0 0 0 0 0 0 0 0 0 0 0 0 0 0 0 0
CIN
-0 -0 -0 -0 -0 -0 -0 -0 -0 -0 -0 -0 -0 -0 -0 -0 -0 -0 -0 -0 -0 -0 -0 -0 -0 -0 -0 -0 -0 -0 -0 -0 -0 -0 -0 -0 -0 -0 -0 -0 -0 -0 -0 -0
-0 -0 -0 -0 -0 -0 -0 -0 -0 -0 -0 -0 -0 -0 -0 -0 -0 -0 -0 -0 -0 -0 -0 -0 -0 -0 -0 -0 -0 -0 -0 -0 -0 -0 -0 -0 -0 -0 -0 -0 -0 -0 -0 -0
-0 -0 -0 -0 -0 -0 -0 -0 -0 -0 -0 -0 -0 -0 -0 -0 -0 -0 -0 -0 -0 -0 -0 -0 -0 -0 -0 -0 -0 -0 -0 -0 -0 -0 -0 -0 -0 -0 -0 -0 -0 -0 -0 -3
-0 -0 -0 -0 -0 -0 -0 -0 -0 -0 -0 -0 -0 -0 -0 -0 -0 -0 -0 -0 -0 -0 -0 -0 -0 -0 -0 -0 -0 -0 -0 -0 -0 -0 -0 -0 -0 -0 -0 -0 -0 -0 -0 -0
-0 -0 -0 -0 -0 -0 -0 -0 -0 -0 -0 -0 -0 -0 -0 -0 -0 -0 -0 -0 -0 -0 -0 -0 -0 -0 -0 -0 -0 -0 -0 -0 -0 -0 -0 -0 -0 -0 -0 -0 -0 -0 -0 -0
-0 -0 -0 -0 -0 -0 -0 -0 -0 -0 -0 -0 -0 -0 -0 -0 -0 -0 -0 -0 -0 -0 -0 -0 -0 -0 -0 -0 -0 -0 -0 -0 -0 -0 -0 -0 -0 -0 -0 -0 -0 -1 -0 -1
-0 -0 -0 -0 -0 -0 -0 -0 -0 -0 -0 -0 -0 -0 -0 -0 -0 -0 -0 -0 -0 -0 -0 -0 -0 -0 -0 -0 -0 -0 -0 -0 -0 -0 -0 -0 -0 -0 -0 -0 -1 -1 -0 -0
-0 -0 -0 -0 -0 -0 -0 -0 -0 -0 -0 -0 -0 -0 -0 -0 -0 -0 -0 -0 -0 -0 -0 -0 -0 -0 -0 -0 -0 -0 -0 -0 -0 -0 -0 -0 -0 -0 -0 -0 -1 -1 -2 -1
-0 -0 -0 -0 -0 -0 -0 -0 -0 -0 -0 -0 -0 -0 -0 -0 -0 -0 -0 -0 -0 -0 -0 -0 -0 -0 -0 -0 -0 -0 -0 -0 -0 -0 -0 -0 -0 -0 -0 -1 -1 -1 -0 -0
-0 -0 -0 -0 -0 -0 -0 -0 -0 -0 -0 -0 -0 -0 -0 -0 -0 -0 -0 -0 -0 -0 -0 -0 -0 -0 -0 -0 -0 -0 -0 -0 -0 -0 -0 -0 -0 -0 -0 -0 -1 -0 -0 -0
-0 -0 -0 -0 -0 -0 -0 -0 -0 -0 -0 -0 -0 -0 -0 -0 -0 -0 -0 -0 -0 -0 -0 -0 -0 -0 -0 -0 -0 -0 -0 -0 -0 -0 -0 -0 -0 -0 -0 -0 -0 -2 -1 -1
-0 -0 -0 -0 -0 -0 -0 -0 -0 -0 -0 -0 -0 -0 -0 -0 -0 -0 -0 -0 -0 -0 -0 -0 -0 -0 -0 -0 -0 -0 -0 -0 -0 -0 -0 -0 -0 -0 -0 -0 -0 -0 -0 -0
-0 -0 -0 -0 -0 -0 -0 -0 -0 -0 -0 -0 -0 -0 -0 -0 -0 -0 -0 -0 -0 -0 -0 -0 -0 -0 -0 -0 -0 -0 -0 -0 -0 -0 -0 -0 -0 -0 -0 -0 -0 -0 -0 -0
-0 -0 -0 -0 -0 -0 -0 -0 -0 -0 -0 -0 -0 -0 -0 -0 -0 -0 -0 -0 -0 -0 -0 -0 -0 -0 -0 -0 -0 -0 -0 -0 -0 -0 -0 -0 -0 -0 -0 -0 -0 -0 -0 -0
-0 -0 -0 -0 -0 -0 -0 -0 -0 -0 -0 -0 -0 -0 -0 -0 -0 -0 -0 -0 -0 -0 -0 -0 -0 -0 -0 -0 -0 -0 -0 -0 -0 -0 -0 -0 -0 -0 -0 -0 -0 -0 -0 -0
-0 -0 -0 -0 -0 -0 -0 -0 -0 -0 -0 -0 -0 -0 -0 -0 -0 -0 -0 -0 -0 -0 -0 -0 -0 -0 -0 -0 -0 -0 -0 -0 -0 -0 -0 -0 -0 -0 -0 -0 -0 -0 -1 -0
-0 -0 -0 -0 -0 -0 -0 -0 -0 -0 -0 -0 -0 -0 -0 -0 -0 -0 -0 -0 -0 -0 -0 -0 -0 -0 -0 -0 -0 -0 -0 -0 -0 -0 -0 -0 -2 -2 -1 -2 -1 -0 -0 -0
-0 -0 -0 -0 -0 -0 -0 -0 -0 -0 -0 -0 -0 -0 -0 -0 -0 -0 -0 -0 -0 -0 -0 -0 -0 -0 -0 -0 -0 -0 -0 -0 -0 -1 -1 -0 -4 -1 -0 -0 -0 -0 -0 -0
-0 -0 -0 -0 -0 -0 -0 -0 -0 -0 -0 -0 -0 -0 -0 -0 -0 -0 -0 -0 -0 -0 -0 -0 -0 -0 -0 -0 -0 -0 -0 -0 -0 -0 -0 -0 -1 -2 -3 -3 -2 -1 -0 -0
-0 -0 -0 -0 -0 -0 -0 -0 -0 -0 -0 -0 -0 -0 -0 -0 -0 -0 -0 -0 -0 -0 -0 -0 -0 -0 -0 -0 -0 -0 -0 -0 -1 -1 -3 -3 -8 -2 -4 -2 -0 -0 -0 -0
-0 -0 -0 -0 -0 -0 -0 -0 -0 -0 -0 -0 -0 -0 -0 -0 -0 -0 -0 -0 -0 -0 -0 -0 -0 -0 -0 -0 -0 -0 -0 -0 -0 -0 -1 -1 -1 -1 -1 -0 -0 -0 -0 -0
-0 -0 -0 -0 -0 -0 -0 -0 -0 -0 -0 -0 -0 -0 -0 -0 -0 -0 -0 -0 -0 -0 -0 -0 -0 -0 -0 -0 -0 -0 -0 -0 -0 -0 -0 -0 -0 -0 -0 -0 -0 -0 -0 -0
-0 -0 -0 -0 -0 -0 -0 -0 -0 -0 -0 -0 -0 -0 -0 -0 -0 -0 -0 -0 -0 -0 -0 -0 -0 -0 -0 -0 -0 -0 -0 -0 -0 -0 -0 -0 -0 -0 -0 -0 -0 -0 -0 -0
-0 -0 -0 -0 -0 -0 -0 -0 -0 -0 -0 -0 -0 -0 -0 -0 -0 -0 -0 -0 -0 -0 -0 -0 -0 -0 -0 -0 -0 -0 -0 -0 -0 -0 -0 -0 -0 -0 -0 -0 -0 -0 -0 -0
-0 -0 -0 -0 -0 -0 -0 -0 -0 -0 -0 -0 -0 -0 -0 -0 -0 -0 -0 -0 -0 -0 -0 -0 -0 -0 -0 -0 -0 -0 -0 -0 -0 -0 -0 -0 -0 -0 -0 -0 -0 -0 -0 -0
-0 -0 -0 -0 -0 -0 -0 -0 -0 -0 -0 -0 -0 -0 -0 -0 -0 -0 -0 -0 -0 -0 -0 -0 -0 -0 -0 -0 -0 -0 -0 -0 -0 -0 -0 -0 -0 -0 -0 -0 -0 -0 -0 -0
-0 -0 -0 -0 -0 -0 -0 -0 -0 -0 -0 -0 -0 -0 -0 -0 -0 -0 -0 -0 -0 -0 -0 -0 -0 -0 -0 -0 -0 -0 -0 -0 -0 -0 -0 -0 -0 -0 -0 -0 -0 -0 -0 -0
Wind_Speed
3 6 6 15 13 10 7 6 6 13 19 18 17 16 14 10 10 11 9 10 10 8 7 7 6 5 5 4 5 4 5 6 6 6 7 7 8 10 13 12 13 13 15 15
2 3 6 11 11 11 9 7 4 11 7 14 15 10 11 13 12 10 9 11 10 10 9 7 6 5 5 5 5 4 6 6 6 7 8 7 8 11 11 13 14 15 15 15
4 3 6 7 10 17 9 8 9 7 7 13 16 15 13 10 10 10 12 11 11 10 7 6 6 5 5 4 4 6 6 5 6 6 7 8 11 11 13 15 14 15 14 14
4 6 0 10 10 9 16 13 8 8 10 13 14 12 10 9 9 14 12 12 10 8 6 5 5 6 5 4 4 6 6 5 6 6 9 11 10 13 13 13 14 13 14 16
7 4 5 4 5 14 10 11 11 11 9 11 12 9 5 10 14 13 13 10 8 7 5 6 6 5 4 4 5 5 6 5 6 7 10 10 12 13 12 12 12 13 14 15
3 7 10 9 11 8 7 5 11 13 13 16 15 7 4 14 15 13 13 10 8 7 5 7 5 5 5 5 5 6 6 5 6 6 8 10 11 11 11 11 12 12 15 15
3 3 8 5 15 8 9 12 12 16 15 17 10 8 10 12 11 13 11 11 8 7 7 7 6 6 5 5 6 5 5 5 5 6 8 8 10 9 11 12 11 13 15 15
4 3 9 9 9 12 9 2 10 12 10 13 18 20 17 12 14 13 10 9 8 8 7 6 7 6 5 5 4 5 5 5 5 6 8 8 10 10 11 11 11 14 15 14
11 9 7 12 6 4 5 8 7 13 18 23 21 18 16 13 14 11 10 8 8 8 8 6 7 6 6 3 6 5 5 5 5 6 8 8 9 9 9 10 11 11 12 12
6 7 7 7 6 7 6 10 13 15 20 21 20 17 14 12 11 11 8 9 7 9 8 6 6 6 6 6 6 5 5 5 5 5 7 8 7 7 7 8 10 10 10 12
5 5 9 6 8 9 9 12 14 12 13 16 19 15 13 12 12 10 11 8 8 8 7 7 7 6 6 6 5 4 4 4 4 4 5 6 7 6 7 7 10 9 9 10
8 10 7 14 10 11 14 13 14 13 11 11 11 13 11 9 11 13 12 9 7 8 8 7 7 7 6 6 5 4 3 3 4 3 3 4 5 9 8 9 13 15 15 11
6 8 7 11 13 9 12 15 12 13 12 11 9 12 12 9 11 13 12 10 9 8 8 7 7 7 6 6 4 4 3 5 3 4 4 3 4 4 8 8 9 11 13 16
7 11 9 13 14 15 13 13 14 11 11 10 8 9 9 14 14 14 12 10 10 8 8 8 7 7 6 5 3 4 6 4 3 4 2 3 4 5 5 6 8 9 9 13
9 9 8 10 11 12 14 13 15 13 12 12 10 9 15 16 14 12 12 11 10 8 9 8 7 6 6 3 4 5 4 2 3 3 3 4 4 5 4 6 7 8 9 10
9 10 12 11 10 11 11 15 16 13 13 9 12 13 16 15 13 12 12 11 9 6 8 8 7 6 6 4 5 4 3 5 4 4 4 4 4 5 5 6 7 8 9 10
11 9 9 8 10 8 8 10 13 14 12 12 10 13 16 14 13 13 11 9 8 8 8 8 8 6 5 6 6 3 2 3 5 4 4 5 5 5 5 6 6 6 7 9
11 11 11 16 13 11 9 10 10 12 10 11 13 14 11 13 14 12 11 10 8 7 6 8 8 6 6 6 5 2 2 2 3 3 4 5 4 4 5 5 7 7 7 8
8 11 10 12 12 12 12 11 11 11 10 11 14 14 11 11 12 11 11 11 8 8 5 7 8 7 7 7 4 2 3 3 3 3 4 5 4 4 5 5 6 6 7 8
11 9 10 11 12 13 13 11 13 13 11 12 12 12 11 10 13 12 10 10 8 5 8 9 7 6 6 6 6 2 3 1 2 2 2 3 2 3 3 4 3 3 4 5
12 13 10 11 12 11 13 13 14 13 13 15 16 15 14 10 11 12 9 7 7 7 7 9 6 4 4 5 4 4 4 2 2 2 1 1 2 2 3 3 3 3 3 3
12 10 9 10 13 12 12 14 14 13 14 13 13 14 15 12 11 5 2 7 7 12 6 6 5 7 5 6 4 4 4 3 3 2 1 1 2 2 2 2 3 3 3 3
14 11 8 10 12 14 13 14 15 16 15 15 16 16 15 12 11 10 7 7 7 10 7 6 8 9 9 4 4 4 4 4 3 3 3 3 3 3 2 1 2 2 3 3
14 13 11 12 12 14 15 13 15 14 14 13 14 15 14 9 3 2 4 13 12 12 7 6 9 10 8 4 4 4 4 4 3 3 3 4 3 3 2 2 2 3 3 3
10 10 13 14 15 12 15 15 14 12 12 10 10 10 11 8 8 9 6 8 12 12 7 8 10 9 5 5 5 4 4 4 3 3 3 4 3 3 2 1 1 2 2 3
10 10 11 15 11 10 11 12 10 9 10 9 7 8 6 7 6 9 8 9 10 10 8 7 5 5 4 5 5 5 5 4 4 3 4 4 4 3 2 1 1 1 1 2
8 9 8 6 7 9 10 11 11 11 11 11 11 9 9 8 8 10 10 9 9 8 8 6 5 5 5 5 5 4 5 4 4 3 3 4 3 3 2 1 1 0 1 2
Wind_Direction
99 28 169 180 190 194 149 167 141 164 157 167 161 157 164 162 149 136 145 127 122 117 109 97 84 67 77 43 19 1 8 22 1 358 350 337 335 335 337 339 335 338 337 332
112 43 358 182 199 190 168 175 165 155 177 166 157 148 141 149 149 153 146 125 115 105 97 87 79 80 62 34 4 31 33 20 9 354 340 332 335 339 337 342 341 338 336 333
185 151 38 332 220 187 181 173 161 156 178 137 144 148 152 154 160 148 122 115 107 103 100 90 79 89 57 27 16 28 49 19 2 334 336 342 342 350 351 340 338 332 330 329
167 88 299 238 202 187 186 190 164 147 165 159 156 155 152 164 144 125 120 113 107 105 97 92 100 74 53 7 23 60 42 13 344 348 352 346 4 353 347 341 331 327 327 329
139 176 269 198 175 185 167 208 171 157 151 140 131 105 121 126 125 126 121 118 119 117 119 106 98 89 55 9 51 51 30 2 355 359 355 10 360 350 339 332 330 327 325 325
123 153 207 226 184 165 129 242 191 155 154 139 133 134 193 123 120 116 120 123 120 129 124 113 108 89 60 46 59 41 27 8 358 359 10 8 354 338 331 328 328 330 333 337
143 205 275 227 148 123 140 229 168 156 161 153 151 154 149 122 117 124 127 130 139 140 131 128 110 88 64 71 52 47 33 12 354 22 16 3 339 334 333 333 335 345 342 338
139 114 264 182 127 163 216 123 138 139 138 126 124 127 136 138 133 136 138 141 139 123 123 117 106 93 82 67 61 50 33 360 20 41 14 351 336 334 339 338 346 348 343 345
180 202 232 185 144 151 151 120 123 117 127 131 133 139 145 144 147 148 140 134 123 124 116 110 102 99 89 79 66 48 18 353 58 29 6 344 342 336 343 347 351 347 348 345
118 233 191 152 131 135 125 116 117 119 126 134 139 143 143 145 142 140 136 126 124 113 117 111 103 99 98 82 65 37 3 13 57 35 2 346 341 334 342 347 350 348 346 349
209 189 130 146 150 145 127 117 115 113 123 130 133 140 141 144 147 139 129 123 118 122 123 128 118 104 94 80 63 19 353 20 48 51 10 343 338 331 336 341 342 347 351 349
199 194 147 172 157 141 141 138 135 135 131 134 133 143 141 150 141 133 130 127 122 128 126 131 117 105 95 82 49 6 1 8 54 32 353 352 337 327 330 327 336 341 345 353
181 155 131 153 151 138 140 144 138 134 139 134 141 146 146 130 136 130 129 129 133 137 137 126 116 108 99 81 37 353 19 66 35 8 336 343 328 321 323 325 330 336 346 353
139 124 128 160 167 160 143 142 138 141 143 142 138 133 132 133 133 135 141 140 133 134 131 123 118 113 104 82 28 26 72 59 7 312 345 350 333 320 313 330 337 341 351 355
153 153 150 131 137 148 152 145 149 156 149 156 150 137 130 141 142 146 135 133 132 138 129 124 122 117 102 80 65 64 76 14 329 340 50 3 348 324 325 338 342 340 346 354
133 121 137 136 141 149 144 162 159 162 157 143 149 145 147 143 143 134 134 134 136 151 137 126 123 128 110 95 81 73 42 352 7 36 28 12 344 340 349 350 350 350 353 352
136 138 136 150 156 158 155 151 155 155 150 147 145 142 138 142 132 134 136 132 129 132 135 135 133 119 120 101 92 78 28 38 22 60 37 9 357 351 356 348 352 351 350 347
159 172 159 167 168 166 155 145 144 144 150 149 138 141 136 140 147 142 138 126 117 113 128 129 126 124 111 103 91 85 72 41 12 19 9 3 355 352 350 0 354 352 354 347
162 169 167 167 164 161 162 156 153 149 143 140 139 150 145 139 140 136 132 127 135 147 174 134 132 134 123 118 129 166 94 41 16 12 9 4 1 0 357 3 357 355 356 352
186 170 168 165 157 159 162 161 153 150 148 139 132 133 132 134 136 136 141 152 167 178 148 148 143 146 146 163 176 185 125 92 35 62 19 20 0 350 349 359 333 339 338 349
180 181 179 171 167 155 155 154 150 151 153 145 148 151 146 139 135 135 126 148 175 157 145 148 150 161 170 167 149 138 120 155 157 134 123 67 5 354 13 13 350 353 343 334
178 176 172 165 164 157 153 153 150 146 149 148 140 135 135 141 145 137 139 167 168 175 160 159 165 166 149 151 142 142 143 154 171 158 123 94 75 55 28 15 4 336 337 334
182 167 156 154 160 158 153 147 149 149 153 152 149 152 158 161 161 153 175 201 152 169 166 171 168 158 157 150 151 153 160 153 152 154 155 132 129 112 94 29 357 354 350 340
167 170 158 153 146 148 149 155 153 153 152 155 157 156 146 145 137 177 131 156 163 169 173 152 158 155 157 165 163 153 153 150 154 159 138 129 119 107 74 49 15 342 355 351
155 147 145 150 152 160 152 148 136 140 142 139 142 154 152 161 162 176 147 151 155 158 144 150 153 157 164 157 150 154 157 147 151 140 134 127 124 119 105 52 20 1 2 341
137 146 156 157 155 152 144 149 146 149 143 141 148 158 145 148 134 138 138 142 148 140 140 149 156 166 164 152 154 157 150 145 152 144 130 123 118 117 105 55 13 3 10 335
121 126 130 123 141 147 147 149 146 155 156 155 155 162 158 150 142 139 141 146 147 145 144 152 160 175 160 154 155 154 143 134 133 136 126 124 121 141 146 185 245 200 35 357